EHI
0 0 0 0 0 0 0 0 0 0 0 0 0 1 4 7 5 2 3 11 27 46 56 58 56 48 33 17 8 7 11 17 21 24 28 30 29 28 26 22 14 5 1 0 0 0 0 0 0
0 0 0 0 0 0 0 0 0 0 0 0 0 1 7 14 11 4 5 17 38 57 63 62 61 54 38 21 11 7 7 10 14 16 18 21 23 22 21 16 9 4 2 1 0 0 0 1 1
0 0 0 0 0 0 0 0 0 0 0 0 0 2 9 15 14 8 12 32 54 66 67 67 70 64 47 29 16 8 4 3 5 6 7 10 12 14 13 9 4 2 3 3 1 0 1 2 2
0 0 0 0 0 0 0 0 0 0 0 0 1 6 12 17 19 22 33 53 67 68 66 71 77 71 55 37 22 12 6 3 1 1 2 4 6 7 7 4 1 0 2 3 1 0 1 1 1
0 0 0 0 0 0 0 0 0 0 0 0 3 12 21 28 37 47 57 68 75 73 70 76 80 73 59 43 29 18 11 6 2 1 2 3 4 4 3 2 0 0 0 1 0 0 0 0 0
0 0 0 0 0 0 0 0 0 0 0 0 5 18 30 42 56 66 70 73 79 81 77 77 77 70 61 51 36 25 17 11 5 2 3 3 2 2 1 1 0 0 0 0 0 0 0 0 0
0 0 0 0 0 0 0 0 0 0 0 0 6 19 31 45 62 72 72 75 82 87 85 80 75 69 64 57 46 33 24 17 10 5 3 2 1 0 0 0 0 0 0 0 0 0 0 0 0
0 0 0 0 0 0 0 0 0 0 0 0 5 14 27 44 65 75 78 81 86 89 89 85 80 75 71 65 54 43 32 24 17 9 4 2 0 0 0 0 0 0 0 0 0 0 0 0 0
0 0 0 0 0 0 0 0 0 0 1 3 8 17 34 54 70 78 82 85 88 89 89 88 85 82 79 74 66 56 45 35 26 18 9 4 1 0 0 0 0 0 0 0 0 0 0 0 0
0 0 0 0 0 0 0 0 0 1 2 6 16 30 49 64 70 74 79 83 87 87 85 85 85 83 82 81 79 73 62 50 39 28 17 10 4 1 0 0 0 0 0 0 0 0 0 0 0
0 0 0 0 0 0 0 0 0 1 2 6 18 36 53 63 65 66 70 75 80 83 81 80 80 78 78 81 84 83 76 64 50 36 24 14 6 2 1 0 0 0 0 0 0 0 0 0 0
0 0 0 0 0 0 0 0 0 0 1 4 16 33 48 56 59 59 61 65 71 75 75 73 72 72 73 76 80 82 77 67 53 38 25 14 6 3 1 0 0 0 1 1 1 1 0 0 0
0 0 0 0 0 0 0 0 0 0 1 7 17 30 42 50 53 55 55 59 63 64 63 61 61 62 64 67 72 72 66 57 45 33 22 12 6 2 1 0 0 1 2 2 2 1 0 0 0
0 0 0 0 0 0 0 0 0 0 3 10 19 28 38 45 49 49 51 56 58 54 50 49 49 50 52 57 61 60 53 42 31 23 18 11 5 3 2 0 0 1 3 3 1 1 0 0 0
0 0 0 0 0 0 0 0 0 2 6 13 21 28 34 41 44 44 48 52 53 49 44 42 43 43 44 49 51 49 42 30 19 15 13 9 5 4 3 2 1 2 2 2 1 0 0 0 0
0 0 0 0 0 0 0 0 1 5 12 18 23 28 32 36 38 41 45 48 48 44 40 38 39 39 41 45 46 42 34 23 13 11 11 8 5 4 4 4 2 1 1 1 0 0 0 0 0
0 0 0 0 0 0 0 2 4 10 18 24 26 28 31 32 33 37 41 42 40 38 34 32 32 32 35 41 43 37 28 18 12 10 10 7 4 3 3 3 2 1 0 0 0 0 0 0 0
0 0 0 0 0 0 2 5 7 12 19 25 27 26 26 26 26 27 29 31 31 31 29 27 26 26 28 33 36 33 25 15 10 9 8 5 3 1 1 1 1 1 0 0 0 0 0 0 0
0 0 0 0 0 1 3 5 7 10 17 22 24 21 19 17 16 15 16 18 20 22 23 23 22 21 23 25 27 27 21 13 8 6 5 3 1 0 0 0 0 0 0 0 0 0 0 0 0
0 0 0 0 0 0 2 3 4 8 16 20 19 16 14 12 10 7 7 8 9 12 14 16 16 17 18 20 21 20 15 10 6 6 5 3 2 1 0 0 0 0 0 0 0 0 0 0 0
0 0 0 0 0 0 0 1 2 7 14 18 16 13 12 11 8 5 3 4 4 5 7 10 11 11 13 15 16 14 11 8 6 6 5 4 2 1 0 0 0 0 0 0 0 0 0 0 0
0 0 0 0 0 0 0 0 1 4 9 12 11 10 10 9 7 5 4 3 3 3 4 5 6 7 8 10 11 10 8 6 5 4 3 3 1 0 0 0 0 0 0 0 0 0 0 0 0
0 0 0 0 0 0 0 0 0 1 4 5 5 6 6 6 5 5 4 3 2 2 2 3 4 4 4 6 7 6 6 5 3 2 1 1 0 0 0 0 0 0 0 0 0 0 0 0 0
0 0 0 0 0 0 0 0 0 0 1 1 2 3 4 4 3 3 2 1 1 1 1 3 4 3 3 4 4 4 4 3 1 1 0 0 0 0 0 0 0 0 0 0 0 0 0 0 0
0 0 0 0 0 0 0 0 0 0 0 0 0 2 4 3 1 1 0 0 0 0 1 3 4 4 3 2 1 1 2 1 0 0 0 0 0 0 0 0 0 0 0 0 0 0 0 0 0
0 0 0 0 0 0 0 0 0 0 0 0 0 1 2 2 1 0 0 0 0 0 1 2 3 3 2 1 0 0 0 0 0 0 0 0 0 0 0 0 0 0 0 0 0 0 0 0 0
0 0 0 0 0 0 0 0 0 0 0 0 0 0 1 1 0 0 0 1 0 0 0 2 3 2 1 0 0 0 0 0 0 0 0 0 0 0 0 0 0 0 0 0 0 0 0 0 0
0 0 0 0 0 0 0 0 0 0 0 0 0 0 0 0 0 0 0 0 0 0 0 1 2 1 0 0 0 0 0 0 0 0 0 0 0 0 0 0 0 0 0 0 0 0 0 0 0
0 0 0 0 0 0 0 0 0 0 0 0 0 0 0 0 0 0 0 0 0 0 0 1 1 0 0 0 0 0 0 0 0 0 0 0 0 0 0 0 0 0 0 0 0 0 0 0 0
0 0 0 0 0 0 0 0 0 0 0 0 0 0 0 0 0 0 0 0 0 0 0 0 0 0 0 0 0 0 0 0 0 0 0 0 0 0 0 0 0 0 0 0 0 0 0 0 0
Wind_Speed
4 3 0 3 5 3 5 8 5 8 5 2 4 9 9 6 6 5 4 12 13 15 14 17 19 19 18 18 17 17 17 17 17 17 17 17 16 16 15 15 14 13 13 13 12 12 12 12 13
2 1 2 4 4 2 8 7 7 11 7 2 5 8 9 5 5 8 7 12 16 17 13 15 20 19 19 19 18 17 17 17 17 17 17 16 16 15 14 14 14 13 12 12 12 12 12 12 12
2 0 3 4 3 6 8 6 6 7 5 2 3 5 7 9 8 9 9 17 16 15 13 15 21 19 19 19 19 18 17 17 17 17 17 16 15 14 14 14 14 13 12 12 12 11 11 11 11
1 4 4 2 7 9 8 11 10 12 7 2 4 6 5 7 9 10 16 19 17 14 12 15 21 19 18 19 19 18 18 17 17 17 16 15 15 14 14 13 13 13 12 12 11 11 10 10 9
3 4 2 3 8 9 10 15 13 11 6 3 5 6 4 2 11 17 20 19 18 13 11 14 19 18 18 18 18 18 18 17 16 16 16 15 14 13 13 13 13 13 12 12 11 11 9 9 8
4 5 3 4 9 9 9 10 9 7 3 1 5 6 2 3 13 17 19 17 17 16 12 12 18 19 18 18 17 17 17 16 16 16 15 15 14 13 13 13 13 12 12 12 11 10 9 8 7
4 3 3 5 7 10 12 8 4 2 2 2 5 7 3 4 9 14 15 15 14 15 13 11 11 14 17 17 17 16 16 16 15 15 15 15 14 14 14 13 12 12 12 11 11 10 9 8 6
5 3 3 4 5 9 9 7 4 2 1 1 6 8 6 6 9 12 12 12 12 12 12 11 11 9 9 11 17 17 17 16 16 16 16 16 15 14 14 12 11 12 12 11 10 10 9 7 6
4 3 5 6 5 8 8 7 9 5 4 5 5 5 7 10 13 13 11 10 9 9 8 10 10 10 9 8 13 14 16 15 16 14 16 14 7 7 8 11 12 12 12 11 10 9 8 7 6
5 4 9 8 6 6 7 4 5 7 7 6 7 9 11 11 12 13 13 12 11 10 9 8 9 9 9 9 8 6 8 8 7 6 8 6 5 5 8 10 13 13 12 11 10 10 8 6 2
4 7 9 10 10 7 4 5 4 4 4 2 5 9 10 10 8 9 10 11 11 11 10 9 8 9 9 6 7 5 4 5 6 7 7 5 5 4 5 4 6 7 8 5 6 6 3 3 3
4 9 9 10 10 5 3 2 3 3 1 0 5 8 9 8 7 7 7 8 8 9 9 8 8 8 7 5 6 6 5 5 5 6 7 6 4 4 4 4 4 4 3 4 3 3 4 4 4
6 11 13 12 9 6 3 2 1 2 2 5 9 10 9 8 7 5 6 7 8 8 9 9 9 9 7 6 5 6 5 6 6 6 7 7 5 5 5 5 4 5 4 4 4 4 4 4 4
6 7 8 7 7 4 3 4 1 3 1 6 8 8 8 7 6 5 5 5 6 7 7 7 7 8 7 5 5 5 5 5 5 5 7 8 6 5 6 5 5 5 5 5 5 5 5 4 3
3 5 7 5 4 4 1 4 3 4 4 7 8 10 11 9 7 5 4 4 5 6 6 6 7 7 7 7 5 4 4 4 4 4 5 6 6 6 6 5 5 5 5 5 4 4 3 3 3
5 4 5 9 4 4 5 4 6 1 8 8 7 9 11 10 10 7 5 5 3 4 5 4 5 6 6 6 5 3 3 3 3 3 3 5 5 5 5 5 5 5 4 4 4 3 3 3 3
4 3 6 10 6 4 6 4 3 2 9 8 8 9 10 10 11 10 9 8 7 6 4 4 2 3 5 5 5 4 3 3 2 2 2 3 4 4 4 5 5 5 4 3 4 3 4 4 3
5 4 5 7 6 3 5 3 0 2 9 9 8 9 10 11 9 9 10 9 8 7 6 4 2 1 2 3 4 3 3 2 2 2 1 2 2 3 3 4 4 4 3 3 3 3 3 4 5
6 6 7 7 4 4 5 3 1 2 7 8 7 8 9 9 7 8 9 9 9 9 8 6 4 1 1 2 3 3 2 2 2 1 1 1 1 1 2 2 3 4 4 4 4 3 4 4 5
9 8 7 6 3 3 3 2 1 2 3 5 7 8 8 7 8 9 9 10 10 9 8 7 5 2 1 2 3 2 3 2 2 2 2 2 1 1 2 2 2 3 3 4 4 4 3 3 4
7 5 4 4 3 3 3 2 2 3 5 6 7 7 7 8 8 8 9 10 10 9 8 6 5 3 2 1 2 3 3 3 2 2 1 1 1 1 1 2 1 2 3 3 4 4 5 4 2
6 5 2 1 2 3 2 1 3 1 4 6 7 6 7 8 8 8 8 9 9 9 8 7 6 4 3 2 3 4 4 4 3 2 2 2 3 3 3 2 1 2 2 3 3 3 3 5 3
6 3 0 1 1 2 4 2 4 1 2 3 4 6 7 8 9 9 8 8 8 8 7 7 6 7 5 4 4 4 4 4 4 3 4 4 4 4 4 3 2 2 3 3 3 3 3 3 3
2 4 6 6 5 2 3 1 3 2 2 3 4 6 7 8 8 8 8 8 8 8 7 7 7 7 7 6 6 5 5 5 5 5 4 4 4 4 6 5 4 4 4 4 4 5 5 5 5
4 6 5 6 5 3 3 1 3 2 1 5 7 7 8 7 7 8 9 9 9 9 8 7 7 8 7 7 7 7 7 7 7 6 6 6 5 5 6 5 6 6 6 6 6 7 7 7 8
1 7 6 4 4 3 3 1 2 2 3 5 7 8 8 7 7 8 8 7 7 8 8 8 7 7 7 7 8 7 7 6 6 7 6 6 5 6 6 7 8 8 8 8 8 8 8 8 9
1 1 6 7 2 0 2 2 2 3 4 6 7 8 7 7 7 7 7 7 7 7 7 7 7 7 7 8 8 8 8 8 8 8 7 6 6 6 7 8 9 9 9 9 9 8 8 8 9
4 4 5 5 4 2 3 4 5 7 7 5 6 7 6 6 7 6 6 6 6 6 6 7 7 8 8 8 7 7 8 8 8 8 9 8 7 7 8 9 9 9 9 9 9 9 8 10 8
2 2 4 4 4 5 4 6 4 9 10 9 8 8 7 7 6 5 5 5 5 6 6 7 7 8 8 8 7 8 8 8 8 8 8 8 8 8 8 8 9 9 9 8 9 9 9 10 9
3 2 5 4 3 4 3 6 1 6 8 10 10 9 8 7 7 6 5 5 5 5 6 6 7 7 7 7 7 8 8 8 8 9 8 8 9 8 9 9 9 9 9 8 9 9 9 9 9
Wind_Direction
281 283 98 54 52 39 254 251 254 294 295 261 123 116 118 120 148 174 184 152 150 151 158 160 157 155 152 148 145 142 138 134 130 127 125 123 123 122 123 123 123 124 124 124 123 120 119 119 119
293 270 69 64 95 249 262 250 259 262 247 212 109 115 104 89 117 128 136 159 153 152 156 160 159 157 156 153 150 147 144 140 137 133 131 129 128 127 127 127 127 127 126 127 126 123 123 122 122
277 228 94 93 169 204 243 257 272 286 276 197 119 97 111 135 138 152 163 152 146 149 155 162 160 160 159 157 155 153 150 146 143 140 138 136 134 132 131 133 133 132 130 129 128 128 127 127 125
48 53 56 100 245 240 242 271 287 290 289 266 122 95 101 149 156 157 145 147 145 150 155 161 161 162 161 160 158 157 154 152 150 147 144 142 141 139 137 138 138 138 136 135 134 133 132 131 129
70 81 68 281 261 261 260 268 272 271 251 225 123 108 86 123 133 138 143 148 148 149 153 159 160 161 162 163 162 161 159 157 155 153 150 148 146 144 143 144 144 143 142 142 141 140 138 135 133
55 73 111 252 265 277 279 269 265 257 252 141 105 102 68 116 135 146 148 150 150 148 149 157 161 162 165 166 165 164 162 161 160 158 155 153 151 150 149 149 150 149 149 148 147 146 146 144 142
122 115 202 243 280 292 288 292 265 236 92 95 114 101 111 139 144 144 144 142 141 144 146 152 159 164 169 169 168 166 165 164 163 161 159 158 157 157 156 155 155 154 154 153 152 151 152 152 154
148 104 279 275 280 283 293 326 325 44 76 66 99 125 163 178 137 130 130 130 137 142 149 154 157 158 163 169 172 170 168 168 167 166 165 164 164 164 163 159 160 160 160 161 161 160 163 166 171
117 87 262 257 254 271 305 341 332 350 39 35 58 127 151 135 123 121 124 123 134 141 150 157 159 158 160 166 176 173 173 172 170 171 171 168 165 164 166 168 169 169 168 170 171 172 174 181 193
119 174 237 233 233 263 297 322 331 18 20 30 46 68 99 113 120 128 140 145 149 155 160 160 160 163 163 173 169 168 174 172 171 171 171 165 161 170 170 177 178 177 178 180 183 185 187 193 212
177 210 242 256 255 253 287 322 353 45 11 27 108 119 117 117 121 132 144 149 154 158 160 161 163 166 170 172 163 167 170 170 172 172 168 164 166 174 173 174 181 181 182 181 188 190 194 201 216
230 254 248 256 260 255 254 297 352 23 270 139 112 120 123 122 123 132 141 148 148 151 157 157 162 163 168 164 166 166 168 173 178 178 174 170 176 183 180 181 180 178 177 179 183 188 201 217 229
237 255 261 256 262 256 258 269 277 308 306 65 83 91 105 115 124 128 135 142 143 154 162 161 162 163 168 162 169 173 177 180 180 179 185 184 184 186 186 184 182 185 183 186 190 196 206 221 230
246 260 266 260 255 256 253 286 355 276 60 72 75 77 83 89 92 88 92 118 134 151 160 156 160 164 161 169 178 178 182 180 181 185 190 191 191 184 184 183 183 189 193 196 197 199 202 212 212
290 316 312 290 265 259 65 332 280 244 89 80 78 80 70 69 73 78 103 126 144 147 149 165 166 160 168 170 172 172 176 171 179 188 191 191 193 186 183 183 186 193 193 194 194 201 193 196 197
358 358 310 290 273 255 133 250 280 262 100 96 89 81 74 62 59 56 74 84 85 114 125 145 174 170 173 165 160 156 165 162 171 180 187 191 192 188 181 179 186 185 177 183 185 191 181 183 171
353 298 278 290 267 219 142 198 280 105 107 106 99 90 81 65 50 40 45 60 65 70 77 103 136 173 183 166 156 156 144 129 149 170 176 180 176 194 187 184 183 173 172 182 191 186 168 162 150
252 268 281 281 285 137 136 167 201 95 112 114 107 94 85 71 51 41 43 48 53 62 63 58 71 163 188 155 136 133 130 138 134 142 159 180 177 192 198 188 176 165 165 182 184 175 162 151 138
250 275 286 289 298 98 123 134 143 92 97 105 105 98 92 82 59 47 40 39 41 41 45 43 37 35 157 139 140 150 157 144 125 128 105 102 143 182 204 189 178 175 176 187 180 167 157 151 134
248 259 278 300 328 95 123 103 59 60 95 113 111 102 97 83 61 44 33 33 38 32 31 35 40 22 340 155 161 156 134 112 112 86 80 71 124 157 186 171 192 179 165 179 179 163 157 164 159
257 240 253 274 330 33 107 27 19 31 70 74 76 88 91 85 70 49 34 30 30 25 21 23 20 32 23 83 124 118 113 113 109 112 91 59 74 98 98 135 168 159 168 187 186 177 167 170 173
254 251 246 326 35 323 54 261 306 70 60 67 66 69 75 76 72 58 43 35 27 18 11 14 17 20 28 79 112 142 143 135 137 128 111 81 52 48 53 75 115 136 147 156 175 179 172 160 161
229 230 111 8 77 34 10 94 292 39 56 72 73 73 67 65 64 55 43 34 27 19 13 4 11 25 32 65 98 107 115 119 117 110 100 83 63 53 50 58 86 114 117 123 125 122 124 135 146
192 50 28 39 61 38 303 144 283 282 223 149 115 98 88 77 64 53 41 29 23 22 20 14 22 29 32 51 70 88 108 113 107 100 97 82 73 62 57 64 73 83 87 90 94 96 99 100 98
63 76 25 358 11 269 293 112 247 288 255 156 137 117 99 83 68 51 38 28 20 20 21 30 34 33 34 51 65 76 84 87 89 90 88 83 78 68 59 67 71 72 72 77 80 82 80 83 86
194 139 159 203 226 264 326 227 254 7 78 110 114 107 95 82 70 57 43 30 23 21 23 34 42 44 44 56 68 74 77 81 80 79 83 80 78 72 63 69 71 71 71 75 78 78 77 79 81
159 206 169 138 138 113 274 260 263 131 118 118 113 106 93 83 77 66 51 41 33 28 27 31 45 53 56 63 70 72 76 81 86 86 81 79 75 75 69 71 72 70 70 72 77 79 76 78 78
148 151 88 109 144 220 259 249 230 192 190 163 136 122 109 97 87 80 64 52 41 36 34 36 45 56 59 64 70 75 73 79 83 86 83 77 73 75 77 76 76 73 71 71 77 78 76 78 73
360 81 110 118 150 159 230 256 223 189 185 169 149 133 127 114 103 90 76 62 53 47 46 49 50 57 61 63 68 73 74 78 81 81 81 81 77 74 75 76 78 76 73 72 78 79 78 79 73
160 179 146 150 209 179 190 258 298 172 167 154 144 137 130 118 108 98 87 75 62 55 54 57 58 61 59 63 70 73 74 76 77 79 78 79 79 75 75 75 74 76 74 72 77 81 76 78 76